| time (UTC) | temp C | wind direction | speed KPH | gust KPH | rain 1hr cm | rain 24hr cm | rain mn cm | humidity % | barometer mb |
| 20260507182441 | 12 | 344 | 4.8 | 11.3 | 0.00 | 0.00 | 0.00 | 78 | 1015.2 |
| 20260507181438 | 12 | 349 | 4.8 | 9.7 | 0.00 | 0.00 | 0.00 | 78 | 1015.2 |
| 20260507180439 | 12 | 29 | 6.4 | 11.3 | 0.00 | 0.00 | 0.00 | 77 | 1015.2 |
| 20260507175438 | 12 | 27 | 4.8 | 9.7 | 0.00 | 0.00 | 0.00 | 77 | 1015.2 |
| 20260507174438 | 12 | 30 | 6.4 | 12.9 | 0.00 | 0.00 | 0.00 | 76 | 1015.2 |
| 20260507173438 | 12 | 318 | 4.8 | 11.3 | 0.00 | 0.00 | 0.00 | 76 | 1015.3 |
| 20260507172933 | 12 | 333 | 4.8 | 12.9 | 0.00 | 0.00 | 0.00 | 76 | 1015.3 |
| 20260507171439 | 12 | 18 | 6.4 | 12.9 | 0.00 | 0.00 | 0.00 | 76 | 1015.3 |
| 20260507170443 | 12 | 344 | 6.4 | 14.5 | 0.00 | 0.00 | 0.00 | 75 | 1015.3 |
| 20260507165438 | 12 | 13 | 8.0 | 12.9 | 0.00 | 0.00 | 0.00 | 75 | 1015.3 |
| 20260507164922 | 12 | 307 | 6.4 | 12.9 | 0.00 | 0.00 | 0.00 | 75 | 1015.4 |
| 20260507163438 | 12 | 46 | 6.4 | 14.5 | 0.00 | 0.00 | 0.00 | 74 | 1015.4 |
| 20260507162438 | 12 | 65 | 6.4 | 12.9 | 0.00 | 0.00 | 0.00 | 74 | 1015.4 |
| 20260507161438 | 12 | 340 | 8.0 | 17.7 | 0.00 | 0.00 | 0.00 | 74 | 1015.4 |
| 20260507160438 | 12 | 335 | 8.0 | 16.1 | 0.00 | 0.00 | 0.00 | 74 | 1015.4 |
| 20260507155443 | 12 | 350 | 8.0 | 16.1 | 0.00 | 0.00 | 0.00 | 73 | 1015.3 |
| 20260507154438 | 13 | 35 | 6.4 | 14.5 | 0.00 | 0.00 | 0.00 | 74 | 1015.3 |
| 20260507153921 | 12 | 61 | 8.0 | 19.3 | 0.00 | 0.00 | 0.00 | 74 | 1015.3 |
| 20260507152437 | 13 | 337 | 8.0 | 17.7 | 0.00 | 0.00 | 0.00 | 74 | 1015.3 |
| 20260507151921 | 13 | 54 | 11.3 | 19.3 | 0.00 | 0.00 | 0.00 | 74 | 1015.2 |
| 20260507150438 | 13 | 10 | 11.3 | 20.9 | 0.00 | 0.00 | 0.00 | 73 | 1015.2 |
| 20260507145910 | 13 | 286 | 9.7 | 19.3 | 0.00 | 0.00 | 0.00 | 72 | 1015.3 |
| 20260507144438 | 13 | 340 | 12.9 | 22.5 | 0.00 | 0.00 | 0.00 | 72 | 1015.2 |
| 20260507143437 | 13 | 307 | 11.3 | 20.9 | 0.00 | 0.00 | 0.00 | 72 | 1015.2 |
| 20260507142438 | 13 | 338 | 11.3 | 20.9 | 0.00 | 0.00 | 0.00 | 70 | 1015.2 |
| 20260507141448 | 13 | 41 | 11.3 | 20.9 | 0.00 | 0.00 | 0.00 | 70 | 1015.2 |
| 20260507140920 | 14 | 351 | 12.9 | 24.1 | 0.00 | 0.00 | 0.00 | 69 | 1015.2 |
| 20260507135438 | 14 | 304 | 11.3 | 22.5 | 0.00 | 0.00 | 0.00 | 70 | 1015.3 |
| 20260507134438 | 14 | 0 | 12.9 | 20.9 | 0.00 | 0.00 | 0.00 | 71 | 1015.3 |
| 20260507133437 | 13 | 324 | 11.3 | 24.1 | 0.00 | 0.00 | 0.00 | 69 | 1015.4 |
| 20260507132438 | 13 | 341 | 14.5 | 22.5 | 0.00 | 0.00 | 0.00 | 71 | 1015.5 |
| 20260507131438 | 13 | 317 | 12.9 | 20.9 | 0.00 | 0.00 | 0.00 | 70 | 1015.4 |
| 20260507130437 | 13 | 335 | 14.5 | 24.1 | 0.00 | 0.00 | 0.00 | 70 | 1015.5 |
| 20260507125438 | 13 | 348 | 12.9 | 24.1 | 0.00 | 0.00 | 0.00 | 69 | 1015.4 |
| 20260507124442 | 13 | 350 | 12.9 | 20.9 | 0.00 | 0.00 | 0.00 | 70 | 1015.4 |
| 20260507123912 | 13 | 15 | 12.9 | 22.5 | 0.00 | 0.00 | 0.00 | 69 | 1015.3 |
| 20260507122436 | 13 | 316 | 11.3 | 24.1 | 0.00 | 0.00 | 0.00 | 69 | 1015.3 |
| 20260507121436 | 13 | 5 | 11.3 | 20.9 | 0.00 | 0.00 | 0.00 | 68 | 1015.3 |
| 20260507120436 | 13 | 42 | 12.9 | 22.5 | 0.00 | 0.00 | 0.00 | 70 | 1015.3 |
| 20260507115436 | 13 | 311 | 11.3 | 24.1 | 0.00 | 0.00 | 0.00 | 68 | 1015.3 |
| 20260507114443 | 13 | 355 | 11.3 | 20.9 | 0.00 | 0.00 | 0.00 | 68 | 1015.3 |
| 20260507113445 | 14 | 334 | 9.7 | 19.3 | 0.00 | 0.00 | 0.00 | 69 | 1015.3 |
| 20260507112435 | 13 | 355 | 9.7 | 17.7 | 0.00 | 0.00 | 0.00 | 69 | 1015.3 |
| 20260507111436 | 13 | 46 | 11.3 | 17.7 | 0.00 | 0.00 | 0.00 | 69 | 1015.4 |
| 20260507110436 | 13 | 331 | 11.3 | 19.3 | 0.00 | 0.00 | 0.00 | 68 | 1015.5 |
| 20260507105435 | 13 | 342 | 9.7 | 19.3 | 0.00 | 0.00 | 0.00 | 70 | 1015.5 |
| 20260507104435 | 13 | 19 | 11.3 | 19.3 | 0.00 | 0.00 | 0.00 | 70 | 1015.5 |
| 20260507103436 | 13 | 315 | 9.7 | 19.3 | 0.00 | 0.00 | 0.00 | 68 | 1015.5 |
| 20260507102436 | 13 | 346 | 11.3 | 17.7 | 0.00 | 0.00 | 0.00 | 69 | 1015.5 |
| 20260507101435 | 13 | 331 | 11.3 | 19.3 | 0.00 | 0.00 | 0.00 | 69 | 1015.5 |
| 20260507100435 | 13 | 303 | 9.7 | 17.7 | 0.00 | 0.00 | 0.00 | 69 | 1015.4 |
| 20260507095435 | 13 | 311 | 9.7 | 19.3 | 0.00 | 0.00 | 0.00 | 71 | 1015.3 |
| 20260507094435 | 13 | 0 | 8.0 | 14.5 | 0.00 | 0.00 | 0.00 | 70 | 1015.3 |
| 20260507093917 | 13 | 350 | 8.0 | 12.9 | 0.00 | 0.00 | 0.00 | 70 | 1015.2 |
| 20260507092440 | 13 | 340 | 8.0 | 16.1 | 0.00 | 0.00 | 0.00 | 69 | 1015.1 |
| 20260507091435 | 12 | 347 | 9.7 | 14.5 | 0.00 | 0.00 | 0.00 | 70 | 1015.0 |
| 20260507090440 | 13 | 339 | 8.0 | 14.5 | 0.00 | 0.00 | 0.00 | 69 | 1015.0 |
| 20260507085435 | 13 | 341 | 8.0 | 14.5 | 0.00 | 0.00 | 0.00 | 67 | 1014.9 |
| 20260507084435 | 12 | 51 | 9.7 | 16.1 | 0.00 | 0.00 | 0.00 | 66 | 1014.9 |
| 20260507083435 | 12 | 340 | 9.7 | 16.1 | 0.00 | 0.00 | 0.00 | 72 | 1014.9 |
| 20260507082911 | 13 | 334 | 6.4 | 16.1 | 0.00 | 0.00 | 0.00 | 70 | 1014.9 |
| 20260507081435 | 13 | 322 | 4.8 | 11.3 | 0.00 | 0.00 | 0.00 | 69 | 1014.9 |
| 20260507080435 | 13 | 56 | 4.8 | 11.3 | 0.00 | 0.00 | 0.00 | 69 | 1014.8 |
| 20260507075433 | 13 | 348 | 3.2 | 11.3 | 0.00 | 0.00 | 0.00 | 69 | 1014.7 |
| 20260507074908 | 12 | 60 | 4.8 | 11.3 | 0.00 | 0.00 | 0.00 | 72 | 1014.7 |
| 20260507073432 | 12 | 349 | 3.2 | 11.3 | 0.00 | 0.00 | 0.00 | 71 | 1014.7 |
| 20260507072438 | 12 | 67 | 3.2 | 12.9 | 0.00 | 0.00 | 0.00 | 73 | 1014.6 |
| 20260507071433 | 12 | 65 | 4.8 | 11.3 | 0.00 | 0.00 | 0.00 | 75 | 1014.6 |
| 20260507070433 | 12 | 45 | 3.2 | 6.4 | 0.00 | 0.00 | 0.00 | 76 | 1014.5 |
| 20260507065502 | 12 | 61 | 3.2 | 6.4 | 0.00 | 0.00 | 0.00 | 77 | 1014.5 |
| 20260507063433 | 11 | 0 | 3.2 | 9.7 | 0.00 | 0.00 | 0.00 | 81 | 1014.4 |
| 20260507062916 | 11 | 36 | 3.2 | 8.0 | 0.00 | 0.00 | 0.00 | 81 | 1014.4 |
| 20260507061433 | 11 | 46 | 3.2 | 9.7 | 0.00 | 0.00 | 0.00 | 82 | 1014.4 |
| 20260507060437 | 10 | 59 | 1.6 | 8.0 | 0.00 | 0.00 | 0.00 | 84 | 1014.3 |
| 20260507055433 | 10 | 53 | 3.2 | 8.0 | 0.00 | 0.00 | 0.00 | 85 | 1014.3 |
| 20260507054431 | 10 | 52 | 1.6 | 8.0 | 0.00 | 0.00 | 0.00 | 86 | 1014.2 |
| 20260507053435 | 10 | 65 | 3.2 | 8.0 | 0.00 | 0.00 | 0.00 | 87 | 1014.1 |
| 20260507052431 | 9 | 49 | 3.2 | 9.7 | 0.00 | 0.00 | 0.00 | 88 | 1014.1 |
| 20260507051912 | 9 | 51 | 1.6 | 6.4 | 0.00 | 0.00 | 0.00 | 88 | 1014.0 |
| 20260507050427 | 8 | 46 | 1.6 | 6.4 | 0.00 | 0.00 | 0.00 | 88 | 1013.9 |
| 20260507045426 | 8 | 44 | 1.6 | 6.4 | 0.00 | 0.00 | 0.00 | 87 | 1013.8 |
| 20260507044425 | 8 | 42 | 1.6 | 8.0 | 0.00 | 0.00 | 0.00 | 87 | 1013.6 |
| 20260507043430 | 8 | 57 | 1.6 | 4.8 | 0.00 | 0.00 | 0.00 | 87 | 1013.6 |
| 20260507042424 | 8 | 69 | 1.6 | 4.8 | 0.00 | 0.00 | 0.00 | 87 | 1013.5 |
| 20260507041424 | 8 | 69 | 1.6 | 9.7 | 0.00 | 0.00 | 0.00 | 87 | 1013.4 |
| 20260507040425 | 8 | 54 | 1.6 | 8.0 | 0.00 | 0.00 | 0.00 | 87 | 1013.4 |
| 20260507035422 | 9 | 51 | 1.6 | 4.8 | 0.00 | 0.00 | 0.00 | 86 | 1013.3 |
| 20260507034422 | 9 | 53 | 1.6 | 8.0 | 0.00 | 0.00 | 0.00 | 86 | 1013.3 |
| 20260507033422 | 9 | 40 | 1.6 | 8.0 | 0.00 | 0.00 | 0.00 | 86 | 1013.2 |
| 20260507032901 | 9 | 57 | 1.6 | 6.4 | 0.00 | 0.00 | 0.00 | 85 | 1013.0 |
| 20260507031423 | 9 | 13 | 1.6 | 6.4 | 0.00 | 0.00 | 0.00 | 85 | 1012.9 |
| 20260507030420 | 9 | 34 | 1.6 | 9.7 | 0.00 | 0.00 | 0.00 | 85 | 1012.8 |
| 20260507025421 | 9 | 32 | 1.6 | 4.8 | 0.00 | 0.00 | 0.00 | 84 | 1012.8 |
| 20260507024423 | 9 | 36 | 1.6 | 9.7 | 0.00 | 0.00 | 0.00 | 84 | 1012.9 |
| 20260507023418 | 10 | 29 | 1.6 | 6.4 | 0.00 | 0.00 | 0.00 | 83 | 1012.8 |
| 20260507022416 | 10 | 57 | 1.6 | 6.4 | 0.00 | 0.00 | 0.00 | 82 | 1012.8 |
| 20260507021426 | 10 | 57 | 1.6 | 8.0 | 0.00 | 0.00 | 0.00 | 81 | 1012.7 |
| 20260507020424 | 10 | 63 | 3.2 | 9.7 | 0.00 | 0.00 | 0.00 | 81 | 1012.6 |
| 20260507015415 | 10 | 336 | 3.2 | 11.3 | 0.00 | 0.00 | 0.00 | 80 | 1012.5 |
| 20260507014414 | 10 | 60 | 1.6 | 6.4 | 0.00 | 0.00 | 0.00 | 79 | 1012.5 |
| 20260507013438 | 10 | 80 | 1.6 | 8.0 | 0.00 | 0.00 | 0.00 | 78 | 1012.6 |
| 20260507011423 | 10 | 70 | 3.2 | 8.0 | 0.00 | 0.00 | 0.00 | 76 | 1012.5 |
| 20260507010418 | 11 | 51 | 3.2 | 14.5 | 0.00 | 0.00 | 0.00 | 76 | 1012.4 |
| 20260507005412 | 11 | 56 | 3.2 | 11.3 | 0.00 | 0.00 | 0.00 | 76 | 1012.4 |
| 20260507004417 | 11 | 51 | 3.2 | 14.5 | 0.00 | 0.00 | 0.00 | 75 | 1012.4 |
| 20260507003413 | 11 | 41 | 3.2 | 8.0 | 0.00 | 0.00 | 0.00 | 75 | 1012.4 |
| 20260507002858 | 11 | 55 | 4.8 | 12.9 | 0.00 | 0.00 | 0.00 | 74 | 1012.3 |
| 20260507001412 | 11 | 60 | 4.8 | 11.3 | 0.00 | 0.00 | 0.00 | 74 | 1012.4 |
| 20260507000410 | 11 | 41 | 3.2 | 12.9 | 0.00 | 0.00 | 0.00 | 73 | 1012.3 |
| 20260506235410 | 12 | 355 | 4.8 | 11.3 | 0.00 | 0.00 | 0.00 | 72 | 1012.1 |
| 20260506234410 | 12 | 49 | 4.8 | 12.9 | 0.00 | 0.00 | 0.00 | 72 | 1012.1 |
| 20260506233419 | 12 | 49 | 4.8 | 12.9 | 0.00 | 0.00 | 0.00 | 71 | 1012.0 |
| 20260506232415 | 12 | 5 | 4.8 | 12.9 | 0.00 | 0.00 | 0.00 | 71 | 1011.9 |
| 20260506231409 | 12 | 345 | 4.8 | 12.9 | 0.00 | 0.00 | 0.00 | 72 | 1011.9 |
| 20260506230410 | 12 | 355 | 6.4 | 14.5 | 0.00 | 0.00 | 0.00 | 72 | 1011.8 |
| 20260506225410 | 12 | 0 | 4.8 | 12.9 | 0.00 | 0.00 | 0.00 | 75 | 1011.8 |
| 20260506224410 | 12 | 50 | 4.8 | 14.5 | 0.00 | 0.00 | 0.00 | 76 | 1011.8 |
| 20260506223409 | 12 | 322 | 4.8 | 12.9 | 0.00 | 0.00 | 0.00 | 77 | 1011.8 |
| 20260506222410 | 12 | 5 | 3.2 | 14.5 | 0.00 | 0.00 | 0.00 | 77 | 1011.8 |
| 20260506221408 | 12 | 59 | 4.8 | 11.3 | 0.00 | 0.00 | 0.00 | 77 | 1011.7 |
| 20260506220407 | 12 | 350 | 3.2 | 11.3 | 0.00 | 0.00 | 0.00 | 77 | 1011.6 |
| 20260506215407 | 12 | 24 | 3.2 | 9.7 | 0.00 | 0.00 | 0.00 | 78 | 1011.5 |
| 20260506214411 | 12 | 57 | 1.6 | 8.0 | 0.00 | 0.00 | 0.00 | 78 | 1011.5 |
| 20260506213407 | 12 | 56 | 3.2 | 14.5 | 0.00 | 0.00 | 0.00 | 78 | 1011.5 |
| 20260506212408 | 12 | 38 | 3.2 | 11.3 | 0.00 | 0.00 | 0.00 | 78 | 1011.5 |
| 20260506211407 | 12 | 34 | 3.2 | 9.7 | 0.00 | 0.00 | 0.00 | 78 | 1011.4 |
| 20260506210407 | 12 | 348 | 3.2 | 9.7 | 0.00 | 0.00 | 0.00 | 78 | 1011.4 |
| 20260506205407 | 12 | 17 | 4.8 | 11.3 | 0.00 | 0.00 | 0.00 | 78 | 1011.4 |
| 20260506204846 | 12 | 5 | 4.8 | 11.3 | 0.00 | 0.00 | 0.00 | 78 | 1011.3 |
| 20260506203405 | 12 | 355 | 3.2 | 11.3 | 0.00 | 0.00 | 0.00 | 78 | 1011.2 |
| 20260506203322 | 12 | 0 | 3.2 | 12.9 | 0.00 | 0.00 | 0.00 | 78 | 1011.2 |
| 20260506201405 | 12 | 311 | 4.8 | 14.5 | 0.00 | 0.00 | 0.00 | 77 | 1011.1 |
| 20260506200405 | 12 | 350 | 4.8 | 11.3 | 0.00 | 0.00 | 0.00 | 77 | 1011.1 |
| 20260506195405 | 12 | 311 | 6.4 | 20.9 | 0.00 | 0.00 | 0.00 | 77 | 1011.0 |
| 20260506194404 | 12 | 331 | 6.4 | 12.9 | 0.00 | 0.00 | 0.00 | 77 | 1010.8 |
| 20260506193837 | 12 | 330 | 6.4 | 16.1 | 0.00 | 0.00 | 0.00 | 77 | 1010.8 |
| 20260506192839 | 12 | 320 | 6.4 | 16.1 | 0.00 | 0.00 | 0.00 | 77 | 1010.7 |
| 20260506192317 | 12 | 316 | 8.0 | 16.1 | 0.00 | 0.00 | 0.00 | 77 | 1010.7 |
| 20260506190404 | 12 | 333 | 8.0 | 17.7 | 0.00 | 0.00 | 0.00 | 77 | 1010.5 |
| 20260506185405 | 12 | 30 | 8.0 | 19.3 | 0.00 | 0.00 | 0.00 | 77 | 1010.5 |
| 20260506184405 | 12 | 335 | 8.0 | 17.7 | 0.00 | 0.00 | 0.00 | 78 | 1010.4 |
| 20260506183405 | 12 | 339 | 9.7 | 17.7 | 0.00 | 0.00 | 0.00 | 78 | 1010.3 |